| time (UTC) | temp F | wind direction | speed knots | gust knots | rain 1hr in | rain 24hr in | rain mn in | humidity % | barometer mb |
| 20260906181029 | 70 | 98 | 0.9 | 3.5 | 0.00 | 0.00 | 0.00 | 58 | 1021.5 |
| 20260906180029 | 71 | 121 | 0.9 | 3.5 | 0.00 | 0.00 | 0.00 | 57 | 1021.6 |
| 20260906175030 | 71 | 109 | 0.9 | 5.2 | 0.00 | 0.00 | 0.00 | 56 | 1021.8 |
| 20260906174030 | 71 | 340 | 0.9 | 3.5 | 0.00 | 0.00 | 0.00 | 55 | 1021.9 |
| 20260906173030 | 71 | 112 | 1.7 | 5.2 | 0.00 | 0.00 | 0.00 | 55 | 1022.0 |
| 20260906172029 | 71 | 113 | 0.9 | 3.5 | 0.00 | 0.00 | 0.00 | 55 | 1022.2 |
| 20260906171029 | 71 | 123 | 0.9 | 3.5 | 0.00 | 0.00 | 0.00 | 55 | 1022.1 |
| 20260906170029 | 71 | 123 | 1.7 | 6.1 | 0.00 | 0.00 | 0.00 | 54 | 1022.2 |
| 20260906165030 | 71 | 126 | 1.7 | 6.1 | 0.00 | 0.00 | 0.00 | 53 | 1022.2 |
| 20260906164030 | 72 | 130 | 1.7 | 5.2 | 0.00 | 0.00 | 0.00 | 53 | 1022.3 |
| 20260906163031 | 72 | 123 | 1.7 | 5.2 | 0.00 | 0.00 | 0.00 | 53 | 1022.4 |
| 20260906162030 | 72 | 131 | 1.7 | 5.2 | 0.00 | 0.00 | 0.00 | 52 | 1022.5 |
| 20260906161029 | 72 | 154 | 1.7 | 7.0 | 0.00 | 0.00 | 0.00 | 52 | 1022.7 |
| 20260906160030 | 72 | 148 | 1.7 | 8.7 | 0.00 | 0.00 | 0.00 | 51 | 1022.8 |
| 20260906155030 | 72 | 194 | 2.6 | 7.8 | 0.00 | 0.00 | 0.00 | 53 | 1022.7 |
| 20260906154030 | 72 | 149 | 0.9 | 7.0 | 0.00 | 0.00 | 0.00 | 55 | 1022.7 |
| 20260906153030 | 72 | 137 | 1.7 | 8.7 | 0.00 | 0.00 | 0.00 | 54 | 1022.7 |
| 20260906152030 | 72 | 128 | 0.9 | 7.8 | 0.00 | 0.00 | 0.00 | 54 | 1022.7 |
| 20260906151029 | 72 | 116 | 2.6 | 7.0 | 0.00 | 0.00 | 0.00 | 54 | 1022.8 |
| 20260906150029 | 72 | 108 | 1.7 | 9.6 | 0.00 | 0.00 | 0.00 | 53 | 1022.7 |
| 20260906145030 | 72 | 89 | 1.7 | 9.6 | 0.00 | 0.00 | 0.00 | 55 | 1022.8 |
| 20260906144030 | 71 | 151 | 1.7 | 8.7 | 0.00 | 0.00 | 0.00 | 53 | 1022.9 |
| 20260906143030 | 71 | 105 | 0.9 | 8.7 | 0.00 | 0.00 | 0.00 | 56 | 1023.2 |
| 20260906142030 | 70 | 122 | 1.7 | 6.1 | 0.00 | 0.00 | 0.00 | 57 | 1023.4 |
| 20260906141029 | 70 | 151 | 1.7 | 4.3 | 0.00 | 0.00 | 0.00 | 56 | 1023.5 |
| 20260906140029 | 70 | 119 | 1.7 | 7.0 | 0.00 | 0.00 | 0.00 | 55 | 1023.4 |
| 20260906135029 | 71 | 136 | 1.7 | 6.1 | 0.00 | 0.00 | 0.00 | 54 | 1023.6 |
| 20260906134030 | 71 | 109 | 2.6 | 7.8 | 0.00 | 0.00 | 0.00 | 53 | 1023.8 |
| 20260906133030 | 71 | 154 | 1.7 | 7.0 | 0.00 | 0.00 | 0.00 | 53 | 1024.1 |
| 20260906132030 | 71 | 135 | 2.6 | 8.7 | 0.00 | 0.00 | 0.00 | 52 | 1024.3 |
| 20260906131030 | 71 | 170 | 2.6 | 10.4 | 0.00 | 0.00 | 0.00 | 52 | 1024.3 |
| 20260906130030 | 71 | 166 | 1.7 | 8.7 | 0.00 | 0.00 | 0.00 | 53 | 1024.4 |
| 20260906125030 | 71 | 146 | 2.6 | 11.3 | 0.00 | 0.00 | 0.00 | 52 | 1024.3 |
| 20260906124029 | 71 | 146 | 2.6 | 8.7 | 0.00 | 0.00 | 0.00 | 54 | 1024.5 |
| 20260906123029 | 70 | 151 | 2.6 | 8.7 | 0.00 | 0.00 | 0.00 | 54 | 1024.5 |
| 20260906122030 | 70 | 173 | 4.3 | 10.4 | 0.00 | 0.00 | 0.00 | 54 | 1024.5 |
| 20260906121030 | 70 | 154 | 3.5 | 9.6 | 0.00 | 0.00 | 0.00 | 57 | 1024.6 |
| 20260906120030 | 69 | 121 | 1.7 | 8.7 | 0.00 | 0.00 | 0.00 | 58 | 1024.6 |
| 20260906115030 | 69 | 121 | 1.7 | 8.7 | 0.00 | 0.00 | 0.00 | 59 | 1024.8 |
| 20260906114030 | 68 | 154 | 1.7 | 8.7 | 0.00 | 0.00 | 0.00 | 60 | 1024.9 |
| 20260906113031 | 68 | 117 | 3.5 | 11.3 | 0.00 | 0.00 | 0.00 | 60 | 1025.0 |
| 20260906112030 | 68 | 163 | 2.6 | 10.4 | 0.00 | 0.00 | 0.00 | 60 | 1025.0 |
| 20260906111030 | 68 | 139 | 3.5 | 9.6 | 0.00 | 0.00 | 0.00 | 62 | 1025.1 |
| 20260906110030 | 67 | 159 | 2.6 | 10.4 | 0.00 | 0.00 | 0.00 | 64 | 1025.1 |
| 20260906105030 | 67 | 187 | 1.7 | 8.7 | 0.00 | 0.00 | 0.00 | 66 | 1025.3 |
| 20260906104029 | 66 | 141 | 1.7 | 7.8 | 0.00 | 0.00 | 0.00 | 67 | 1025.4 |
| 20260906103030 | 66 | 121 | 1.7 | 7.0 | 0.00 | 0.00 | 0.00 | 68 | 1025.5 |
| 20260906102030 | 65 | 155 | 1.7 | 7.0 | 0.00 | 0.00 | 0.00 | 69 | 1025.6 |
| 20260906101030 | 65 | 203 | 1.7 | 7.8 | 0.00 | 0.00 | 0.00 | 71 | 1025.7 |
| 20260906100030 | 64 | 148 | 1.7 | 7.0 | 0.00 | 0.00 | 0.00 | 73 | 1025.8 |
| 20260906095030 | 64 | 162 | 1.7 | 9.6 | 0.00 | 0.00 | 0.00 | 75 | 1025.9 |
| 20260906094030 | 63 | 183 | 2.6 | 7.8 | 0.00 | 0.00 | 0.00 | 77 | 1026.1 |
| 20260906093030 | 63 | 184 | 1.7 | 5.2 | 0.00 | 0.00 | 0.00 | 78 | 1026.2 |
| 20260906092030 | 62 | 184 | 4.3 | 8.7 | 0.00 | 0.00 | 0.00 | 78 | 1026.3 |
| 20260906091030 | 62 | 166 | 2.6 | 7.8 | 0.00 | 0.00 | 0.00 | 78 | 1026.2 |
| 20260906090029 | 61 | 195 | 3.5 | 8.7 | 0.00 | 0.00 | 0.00 | 79 | 1026.2 |
| 20260906085030 | 61 | 175 | 2.6 | 7.0 | 0.00 | 0.00 | 0.00 | 80 | 1026.3 |
| 20260906084030 | 61 | 181 | 3.5 | 9.6 | 0.00 | 0.00 | 0.00 | 80 | 1026.2 |
| 20260906083030 | 60 | 192 | 3.5 | 7.8 | 0.00 | 0.00 | 0.00 | 81 | 1026.2 |
| 20260906082029 | 60 | 198 | 3.5 | 8.7 | 0.00 | 0.00 | 0.00 | 81 | 1026.3 |
| 20260906081030 | 60 | 184 | 3.5 | 7.8 | 0.00 | 0.00 | 0.00 | 82 | 1026.3 |
| 20260906080030 | 59 | 183 | 3.5 | 9.6 | 0.00 | 0.00 | 0.00 | 83 | 1026.4 |
| 20260906075030 | 59 | 187 | 4.3 | 9.6 | 0.00 | 0.00 | 0.00 | 84 | 1026.4 |
| 20260906074030 | 58 | 186 | 1.7 | 7.0 | 0.00 | 0.00 | 0.00 | 85 | 1026.2 |
| 20260906073030 | 58 | 139 | 1.7 | 4.3 | 0.00 | 0.00 | 0.00 | 85 | 1026.1 |
| 20260906072030 | 57 | 117 | 1.7 | 5.2 | 0.00 | 0.00 | 0.00 | 86 | 1026.1 |
| 20260906071030 | 57 | 120 | 1.7 | 5.2 | 0.00 | 0.00 | 0.00 | 87 | 1026.1 |
| 20260906070030 | 56 | 137 | 1.7 | 5.2 | 0.00 | 0.00 | 0.00 | 87 | 1026.0 |
| 20260906065029 | 56 | 122 | 1.7 | 5.2 | 0.00 | 0.00 | 0.00 | 88 | 1026.0 |
| 20260906064030 | 55 | 111 | 2.6 | 5.2 | 0.00 | 0.00 | 0.00 | 88 | 1026.1 |
| 20260906063030 | 55 | 117 | 1.7 | 3.5 | 0.00 | 0.00 | 0.00 | 88 | 1026.1 |
| 20260906062030 | 54 | 102 | 1.7 | 3.5 | 0.00 | 0.00 | 0.00 | 88 | 1026.1 |
| 20260906061029 | 54 | 108 | 1.7 | 5.2 | 0.00 | 0.00 | 0.00 | 88 | 1026.1 |
| 20260906060030 | 54 | 106 | 2.6 | 5.2 | 0.00 | 0.00 | 0.00 | 88 | 1026.0 |
| 20260906055030 | 54 | 110 | 1.7 | 5.2 | 0.00 | 0.00 | 0.00 | 88 | 1026.0 |
| 20260906054030 | 54 | 120 | 1.7 | 5.2 | 0.00 | 0.00 | 0.00 | 87 | 1025.9 |
| 20260906053030 | 54 | 103 | 2.6 | 5.2 | 0.00 | 0.00 | 0.00 | 87 | 1025.9 |
| 20260906052030 | 54 | 98 | 1.7 | 5.2 | 0.00 | 0.00 | 0.00 | 87 | 1025.8 |
| 20260906051030 | 54 | 101 | 2.6 | 5.2 | 0.00 | 0.00 | 0.00 | 87 | 1025.7 |
| 20260906050030 | 54 | 132 | 1.7 | 3.5 | 0.00 | 0.00 | 0.00 | 87 | 1025.7 |
| 20260906045030 | 54 | 107 | 2.6 | 5.2 | 0.00 | 0.00 | 0.00 | 87 | 1025.7 |
| 20260906044029 | 54 | 94 | 2.6 | 6.1 | 0.00 | 0.00 | 0.00 | 86 | 1025.7 |
| 20260906043030 | 55 | 94 | 2.6 | 6.1 | 0.00 | 0.00 | 0.00 | 87 | 1025.7 |
| 20260906042030 | 55 | 106 | 1.7 | 3.5 | 0.00 | 0.00 | 0.00 | 87 | 1025.7 |
| 20260906041030 | 55 | 120 | 1.7 | 3.5 | 0.00 | 0.00 | 0.00 | 86 | 1025.8 |
| 20260906040030 | 55 | 141 | 0.9 | 3.5 | 0.00 | 0.00 | 0.00 | 86 | 1025.8 |
| 20260906035029 | 55 | 123 | 1.7 | 3.5 | 0.00 | 0.00 | 0.00 | 86 | 1025.7 |
| 20260906034030 | 56 | 127 | 0.9 | 2.6 | 0.00 | 0.00 | 0.00 | 86 | 1025.8 |
| 20260906033030 | 56 | 126 | 0.9 | 2.6 | 0.00 | 0.00 | 0.00 | 86 | 1025.9 |
| 20260906032029 | 56 | 160 | 0.9 | 2.6 | 0.00 | 0.00 | 0.00 | 85 | 1026.0 |
| 20260906031030 | 56 | 191 | 1.7 | 3.5 | 0.00 | 0.00 | 0.00 | 85 | 1026.1 |
| 20260906030030 | 56 | 182 | 1.7 | 6.1 | 0.00 | 0.00 | 0.00 | 85 | 1026.3 |
| 20260906025030 | 56 | 173 | 0.9 | 3.5 | 0.00 | 0.00 | 0.00 | 85 | 1026.3 |
| 20260906024030 | 57 | 177 | 2.6 | 6.1 | 0.00 | 0.00 | 0.00 | 84 | 1026.3 |
| 20260906023030 | 57 | 181 | 3.5 | 7.8 | 0.00 | 0.00 | 0.00 | 84 | 1026.4 |
| 20260906022030 | 57 | 187 | 3.5 | 6.1 | 0.00 | 0.00 | 0.00 | 84 | 1026.4 |
| 20260906021029 | 57 | 189 | 3.5 | 5.2 | 0.00 | 0.00 | 0.00 | 84 | 1026.5 |
| 20260906020030 | 57 | 190 | 4.3 | 7.0 | 0.00 | 0.00 | 0.00 | 83 | 1026.4 |
| 20260906015030 | 57 | 202 | 4.3 | 7.0 | 0.00 | 0.00 | 0.00 | 83 | 1026.3 |
| 20260906014029 | 57 | 194 | 4.3 | 7.8 | 0.00 | 0.00 | 0.00 | 82 | 1026.3 |
| 20260906013030 | 57 | 194 | 3.5 | 7.8 | 0.00 | 0.00 | 0.00 | 82 | 1026.2 |
| 20260906012030 | 57 | 168 | 0.9 | 4.3 | 0.00 | 0.00 | 0.00 | 81 | 1026.2 |
| 20260906011029 | 57 | 179 | 1.7 | 5.2 | 0.00 | 0.00 | 0.00 | 81 | 1026.1 |
| 20260906010030 | 57 | 115 | 1.7 | 3.5 | 0.00 | 0.00 | 0.00 | 81 | 1026.1 |
| 20260906005029 | 57 | 117 | 0.9 | 2.6 | 0.00 | 0.00 | 0.00 | 81 | 1026.0 |
| 20260906004030 | 58 | 146 | 0.9 | 2.6 | 0.00 | 0.00 | 0.00 | 81 | 1026.0 |
| 20260906003030 | 58 | 181 | 2.6 | 5.2 | 0.00 | 0.00 | 0.00 | 80 | 1026.0 |
| 20260906002030 | 58 | 187 | 3.5 | 6.1 | 0.00 | 0.00 | 0.00 | 80 | 1026.3 |
| 20260906001030 | 58 | 186 | 4.3 | 7.8 | 0.00 | 0.00 | 0.00 | 79 | 1026.3 |
| 20260906000030 | 58 | 183 | 2.6 | 6.1 | 0.00 | 0.00 | 0.00 | 78 | 1026.2 |
| 20260905235030 | 59 | 187 | 3.5 | 6.1 | 0.00 | 0.00 | 0.00 | 78 | 1026.3 |
| 20260905234030 | 60 | 175 | 1.7 | 5.2 | 0.00 | 0.00 | 0.00 | 76 | 1026.2 |
| 20260905233030 | 60 | 164 | 1.7 | 6.1 | 0.00 | 0.00 | 0.00 | 77 | 1026.1 |
| 20260905232030 | 60 | 203 | 3.5 | 6.1 | 0.00 | 0.00 | 0.00 | 76 | 1026.2 |
| 20260905231030 | 61 | 210 | 3.5 | 7.0 | 0.00 | 0.00 | 0.00 | 75 | 1026.2 |
| 20260905230029 | 62 | 257 | 7.0 | 8.7 | 0.00 | 0.00 | 0.00 | 75 | 1026.0 |
| 20260905225030 | 62 | 257 | 8.7 | 11.3 | 0.00 | 0.00 | 0.00 | 74 | 1026.0 |
| 20260905224030 | 62 | 273 | 9.6 | 11.3 | 0.00 | 0.00 | 0.00 | 73 | 1025.9 |
| 20260905223030 | 62 | 279 | 8.7 | 12.2 | 0.00 | 0.00 | 0.00 | 73 | 1026.0 |
| 20260905222030 | 62 | 274 | 9.6 | 11.3 | 0.00 | 0.00 | 0.00 | 73 | 1025.9 |
| 20260905221030 | 62 | 265 | 9.6 | 12.2 | 0.00 | 0.00 | 0.00 | 73 | 1025.8 |
| 20260905220030 | 62 | 283 | 8.7 | 12.2 | 0.00 | 0.00 | 0.00 | 73 | 1025.8 |
| 20260905215030 | 62 | 282 | 8.7 | 11.3 | 0.00 | 0.00 | 0.00 | 72 | 1025.6 |
| 20260905214030 | 62 | 283 | 8.7 | 11.3 | 0.00 | 0.00 | 0.00 | 72 | 1025.8 |
| 20260905213030 | 62 | 293 | 8.7 | 10.4 | 0.00 | 0.00 | 0.00 | 72 | 1025.5 |
| 20260905212030 | 62 | 287 | 8.7 | 10.4 | 0.00 | 0.00 | 0.00 | 72 | 1025.5 |
| 20260905211030 | 62 | 300 | 8.7 | 10.4 | 0.00 | 0.00 | 0.00 | 71 | 1025.5 |
| 20260905210030 | 62 | 299 | 8.7 | 11.3 | 0.00 | 0.00 | 0.00 | 71 | 1025.4 |
| 20260905205029 | 62 | 309 | 8.7 | 12.2 | 0.00 | 0.00 | 0.00 | 72 | 1025.2 |
| 20260905204030 | 62 | 297 | 8.7 | 12.2 | 0.00 | 0.00 | 0.00 | 71 | 1025.4 |
| 20260905203029 | 62 | 313 | 10.4 | 13.0 | 0.00 | 0.00 | 0.00 | 71 | 1025.1 |
| 20260905202030 | 62 | 315 | 9.6 | 12.2 | 0.00 | 0.00 | 0.00 | 71 | 1025.3 |
| 20260905201030 | 62 | 304 | 10.4 | 13.0 | 0.00 | 0.00 | 0.00 | 70 | 1025.2 |
| 20260905200029 | 62 | 306 | 11.3 | 14.8 | 0.00 | 0.00 | 0.00 | 72 | 1025.2 |
| 20260905195030 | 62 | 307 | 11.3 | 13.9 | 0.00 | 0.00 | 0.00 | 71 | 1025.3 |
| 20260905194030 | 62 | 300 | 13.0 | 15.6 | 0.00 | 0.00 | 0.00 | 71 | 1025.2 |
| 20260905193030 | 63 | 294 | 13.0 | 16.5 | 0.00 | 0.00 | 0.00 | 71 | 1025.1 |
| 20260905192030 | 63 | 298 | 13.9 | 17.4 | 0.00 | 0.00 | 0.00 | 72 | 1024.9 |
| 20260905191030 | 63 | 296 | 13.9 | 18.2 | 0.00 | 0.00 | 0.00 | 72 | 1024.8 |
| 20260905190030 | 63 | 290 | 15.6 | 19.1 | 0.00 | 0.00 | 0.00 | 69 | 1024.7 |
| 20260905185030 | 63 | 291 | 15.6 | 22.6 | 0.00 | 0.00 | 0.00 | 69 | 1024.5 |
| 20260905184030 | 63 | 297 | 15.6 | 23.5 | 0.00 | 0.00 | 0.00 | 69 | 1024.3 |
| 20260905183030 | 63 | 282 | 17.4 | 24.3 | 0.00 | 0.00 | 0.00 | 67 | 1024.2 |
| 20260905182030 | 63 | 295 | 16.5 | 21.7 | 0.00 | 0.00 | 0.00 | 72 | 1024.2 |